Location: Hains Lake
(37.8540°N, 99.8578°W)
Time: 04:08:42
(UTC+00:00)

Tiros 1 despin weight - Pass Details

Date: 20 April 2021
Orbit: 593 x 642 km, 48.2° (Epoch: 07 May)

Event Time Altitude Azimuth Distance (km) Brightness Sun altitude
Rises 10:09:15 0° 203° (SSW) 2,915 - -20.1°
Reaches altitude 10° 10:11:52 10° 190° (S) 2,005 - -19.7°
Exits shadow 10:13:34 18° 174° (S) 1,523 ? -19.4°
Maximum altitude 10:15:40 26° 135° (SE) 1,248 ? -19.1°
Drops below altitude 10° 10:19:27 10° 79° (E) 1,990 ? -18.4°
Sets 10:22:03 0° 66° (ENE) 2,890 ? -18.0°
